Time,TemperatureF,DewpointF,PressureIn,WindDirection,WindDirectionDegrees,WindSpeedMPH,WindSpeedGustMPH,Humidity,HourlyPrecipIn,Conditions,Clouds,dailyrainin,SoftwareType,DateUTC
2013-04-16 00:00:00,55.7,46.2,30.13,SSE,161,4.0,13.0,70,0.00,,,0.00,WUHU216DAVISVP2,2013-04-16 04:00:00,
2013-04-16 00:07:00,55.9,46.4,30.13,SSE,165,6.0,13.0,70,0.00,,,0.00,WUHU216DAVISVP2,2013-04-16 04:07:00,
2013-04-16 00:12:00,56.4,46.5,30.13,SSE,162,6.0,15.0,69,0.00,,,0.00,WUHU216DAVISVP2,2013-04-16 04:12:00,
2013-04-16 00:18:00,56.7,46.4,30.12,South,170,9.0,16.0,68,0.00,,,0.00,WUHU216DAVISVP2,2013-04-16 04:18:00,
2013-04-16 00:23:00,57.1,46.4,30.12,SE,145,11.0,17.0,67,0.00,,,0.00,WUHU216DAVISVP2,2013-04-16 04:23:00,
2013-04-16 00:28:00,56.9,46.2,30.12,SE,146,7.0,20.0,67,0.00,,,0.00,WUHU216DAVISVP2,2013-04-16 04:28:00,
2013-04-16 00:34:00,56.5,45.8,30.12,SE,133,5.0,23.0,67,0.00,,,0.00,WUHU216DAVISVP2,2013-04-16 04:34:00,
2013-04-16 00:39:00,56.2,45.8,30.12,SSE,165,9.0,23.0,68,0.00,,,0.00,WUHU216DAVISVP2,2013-04-16 04:39:00,
2013-04-16 00:44:00,56.1,45.8,30.12,South,174,6.0,23.0,68,0.00,,,0.00,WUHU216DAVISVP2,2013-04-16 04:44:00,
2013-04-16 00:49:00,56.1,45.8,30.13,SSE,162,15.0,22.0,68,0.00,,,0.00,WUHU216DAVISVP2,2013-04-16 04:49:00,
2013-04-16 00:56:00,56.1,45.8,30.13,South,181,11.0,22.0,68,0.00,,,0.00,WUHU216DAVISVP2,2013-04-16 04:56:00,
2013-04-16 01:01:00,56.2,45.9,30.13,SSE,154,11.0,20.0,68,0.00,,,0.00,WUHU216DAVISVP2,2013-04-16 05:01:00,
2013-04-16 01:07:00,56.2,45.9,30.13,SE,136,8.0,25.0,68,0.00,,,0.00,WUHU216DAVISVP2,2013-04-16 05:07:00,
2013-04-16 01:12:00,56.2,45.9,30.13,ESE,112,6.0,25.0,68,0.00,,,0.00,WUHU216DAVISVP2,2013-04-16 05:12:00,
2013-04-16 01:17:00,56.1,45.8,30.13,South,174,11.0,25.0,68,0.00,,,0.00,WUHU216DAVISVP2,2013-04-16 05:17:00,
2013-04-16 01:24:00,55.9,45.6,30.12,WSW,242,4.0,25.0,68,0.00,,,0.00,WUHU216DAVISVP2,2013-04-16 05:24:00,
2013-04-16 01:29:00,55.7,45.8,30.12,SSE,162,14.0,20.0,69,0.00,,,0.00,WUHU216DAVISVP2,2013-04-16 05:29:00,
2013-04-16 01:34:00,55.8,45.8,30.12,ESE,119,5.0,21.0,69,0.00,,,0.00,WUHU216DAVISVP2,2013-04-16 05:34:00,
2013-04-16 01:40:00,55.9,46.3,30.12,SSE,150,6.0,21.0,70,0.00,,,0.00,WUHU216DAVISVP2,2013-04-16 05:40:00,
2013-04-16 01:45:00,55.9,46.4,30.12,SE,142,7.0,21.0,70,0.00,,,0.00,WUHU216DAVISVP2,2013-04-16 05:45:00,
2013-04-16 01:50:00,56.1,46.6,30.12,South,176,10.0,21.0,70,0.00,,,0.00,WUHU216DAVISVP2,2013-04-16 05:50:00,
2013-04-16 01:56:00,56.3,46.8,30.12,South,183,15.0,21.0,70,0.00,,,0.00,WUHU216DAVISVP2,2013-04-16 05:56:00,
2013-04-16 02:01:00,56.3,46.8,30.12,SSE,158,6.0,25.0,70,0.00,,,0.00,WUHU216DAVISVP2,2013-04-16 06:01:00,
2013-04-16 02:06:00,56.3,46.8,30.12,SE,146,6.0,25.0,70,0.00,,,0.00,WUHU216DAVISVP2,2013-04-16 06:06:00,
2013-04-16 02:12:00,56.3,47.1,30.12,SSE,151,11.0,25.0,71,0.00,,,0.00,WUHU216DAVISVP2,2013-04-16 06:12:00,
2013-04-16 02:17:00,56.3,47.1,30.11,South,179,11.0,25.0,71,0.00,,,0.00,WUHU216DAVISVP2,2013-04-16 06:17:00,
2013-04-16 02:21:00,56.2,47.0,30.11,SSE,159,6.0,25.0,71,0.00,,,0.00,WUHU216DAVISVP2,2013-04-16 06:21:00,
2013-04-16 02:26:00,56.2,47.0,30.11,South,172,18.0,26.0,71,0.00,,,0.00,WUHU216DAVISVP2,2013-04-16 06:26:00,
2013-04-16 02:32:00,56.2,47.4,30.11,SE,138,9.0,26.0,72,0.00,,,0.00,WUHU216DAVISVP2,2013-04-16 06:32:00,
2013-04-16 02:37:00,56.2,47.3,30.11,SE,131,8.0,28.0,72,0.00,,,0.00,WUHU216DAVISVP2,2013-04-16 06:37:00,
2013-04-16 02:44:00,56.2,47.3,30.11,SE,137,12.0,28.0,72,0.00,,,0.00,WUHU216DAVISVP2,2013-04-16 06:44:00,
2013-04-16 02:49:00,56.3,47.4,30.11,SW,215,14.0,28.0,72,0.00,,,0.00,WUHU216DAVISVP2,2013-04-16 06:49:00,
2013-04-16 02:54:00,56.4,47.1,30.11,SE,143,10.0,26.0,71,0.00,,,0.00,WUHU216DAVISVP2,2013-04-16 06:54:00,
2013-04-16 03:01:00,56.3,47.0,30.11,SSE,162,12.0,28.0,71,0.00,,,0.00,WUHU216DAVISVP2,2013-04-16 07:01:00,
2013-04-16 03:06:00,56.3,47.1,30.11,SSE,150,9.0,28.0,71,0.00,,,0.00,WUHU216DAVISVP2,2013-04-16 07:06:00,
2013-04-16 03:12:00,56.2,47.4,30.11,South,169,10.0,28.0,72,0.00,,,0.00,WUHU216DAVISVP2,2013-04-16 07:12:00,
2013-04-16 03:17:00,56.1,47.3,30.11,SE,134,8.0,28.0,72,0.00,,,0.00,WUHU216DAVISVP2,2013-04-16 07:17:00,
2013-04-16 03:22:00,56.1,46.9,30.12,SSE,156,14.0,23.0,71,0.00,,,0.00,WUHU216DAVISVP2,2013-04-16 07:22:00,
2013-04-16 03:28:00,56.1,46.9,30.12,South,183,13.0,21.0,71,0.00,,,0.00,WUHU216DAVISVP2,2013-04-16 07:28:00,
2013-04-16 03:40:00,55.9,46.7,30.11,SSE,156,11.0,22.0,71,0.00,,,0.00,WUHU216DAVISVP2,2013-04-16 07:40:00,
2013-04-16 03:45:00,55.7,46.6,30.11,SSE,159,10.0,24.0,71,0.00,,,0.00,WUHU216DAVISVP2,2013-04-16 07:45:00,
2013-04-16 03:50:00,55.6,46.5,30.11,SSE,150,9.0,24.0,71,0.00,,,0.00,WUHU216DAVISVP2,2013-04-16 07:50:00,
2013-04-16 03:55:00,55.4,46.3,30.11,SSW,194,11.0,25.0,71,0.00,,,0.00,WUHU216DAVISVP2,2013-04-16 07:55:00,
2013-04-16 04:00:00,55.4,46.2,30.11,SSE,160,16.0,25.0,71,0.00,,,0.00,WUHU216DAVISVP2,2013-04-16 08:00:00,
2013-04-16 04:06:00,55.4,46.2,30.12,South,171,7.0,25.0,71,0.00,,,0.00,WUHU216DAVISVP2,2013-04-16 08:06:00,
2013-04-16 04:11:00,55.4,45.8,30.12,SE,136,8.0,24.0,70,0.00,,,0.00,WUHU216DAVISVP2,2013-04-16 08:11:00,
2013-04-16 04:16:00,55.2,45.7,30.11,SSW,193,7.0,21.0,70,0.00,,,0.00,WUHU216DAVISVP2,2013-04-16 08:16:00,
2013-04-16 04:23:00,55.0,45.9,30.11,SSE,158,11.0,21.0,71,0.00,,,0.00,WUHU216DAVISVP2,2013-04-16 08:23:00,
2013-04-16 04:28:00,55.0,45.9,30.11,SE,134,20.0,20.0,71,0.00,,,0.00,WUHU216DAVISVP2,2013-04-16 08:28:00,
2013-04-16 04:33:00,55.0,45.5,30.11,SSE,160,9.0,21.0,70,0.00,,,0.00,WUHU216DAVISVP2,2013-04-16 08:33:00,
2013-04-16 04:38:00,55.0,45.5,30.11,SE,138,11.0,21.0,70,0.00,,,0.00,WUHU216DAVISVP2,2013-04-16 08:38:00,
2013-04-16 04:44:00,55.0,45.5,30.11,SSW,211,6.0,23.0,70,0.00,,,0.00,WUHU216DAVISVP2,2013-04-16 08:44:00,
2013-04-16 04:50:00,54.9,45.4,30.10,SSE,155,5.0,23.0,70,0.00,,,0.00,WUHU216DAVISVP2,2013-04-16 08:50:00,
2013-04-16 04:55:00,54.8,45.3,30.10,SW,226,8.0,24.0,70,0.00,,,0.00,WUHU216DAVISVP2,2013-04-16 08:55:00,
2013-04-16 05:00:00,54.8,45.7,30.10,SSE,151,10.0,24.0,71,0.00,,,0.00,WUHU216DAVISVP2,2013-04-16 09:00:00,
2013-04-16 05:05:00,54.8,45.7,30.09,SSE,167,7.0,24.0,71,0.00,,,0.00,WUHU216DAVISVP2,2013-04-16 09:05:00,
2013-04-16 05:10:00,54.6,45.4,30.08,ESE,118,7.0,20.0,71,0.00,,,0.00,WUHU216DAVISVP2,2013-04-16 09:10:00,
2013-04-16 05:17:00,54.6,45.4,30.08,South,184,6.0,20.0,71,0.00,,,0.00,WUHU216DAVISVP2,2013-04-16 09:17:00,
2013-04-16 05:22:00,54.6,45.4,30.08,SSE,162,12.0,25.0,71,0.00,,,0.00,WUHU216DAVISVP2,2013-04-16 09:22:00,
2013-04-16 05:28:00,54.7,45.8,30.08,SSE,160,5.0,25.0,72,0.00,,,0.00,WUHU216DAVISVP2,2013-04-16 09:28:00,
2013-04-16 05:33:00,54.8,45.9,30.08,SSE,156,9.0,25.0,72,0.00,,,0.00,WUHU216DAVISVP2,2013-04-16 09:33:00,
2013-04-16 05:38:00,54.9,45.7,30.08,SSE,147,11.0,25.0,71,0.00,,,0.00,WUHU216DAVISVP2,2013-04-16 09:38:00,
2013-04-16 05:43:00,54.9,46.2,30.08,SSE,163,9.0,26.0,72,0.00,,,0.00,WUHU216DAVISVP2,2013-04-16 09:43:00,
2013-04-16 05:49:00,54.8,46.1,30.07,SSW,198,13.0,26.0,72,0.00,,,0.00,WUHU216DAVISVP2,2013-04-16 09:49:00,
2013-04-16 05:54:00,54.6,45.9,30.07,South,183,5.0,26.0,72,0.00,,,0.00,WUHU216DAVISVP2,2013-04-16 09:54:00,
2013-04-16 06:01:00,54.5,46.1,30.08,SSE,152,13.0,25.0,73,0.00,,,0.00,WUHU216DAVISVP2,2013-04-16 10:01:00,
2013-04-16 06:06:00,54.2,45.8,30.08,SSE,153,8.0,25.0,73,0.00,,,0.00,WUHU216DAVISVP2,2013-04-16 10:06:00,
2013-04-16 06:11:00,54.1,46.1,30.08,SE,126,10.0,22.0,74,0.00,,,0.00,WUHU216DAVISVP2,2013-04-16 10:11:00,
2013-04-16 06:17:00,54.0,45.9,30.07,SE,141,13.0,22.0,74,0.00,,,0.00,WUHU216DAVISVP2,2013-04-16 10:17:00,
2013-04-16 06:22:00,53.8,45.8,30.07,SSE,153,14.0,26.0,74,0.00,,,0.00,WUHU216DAVISVP2,2013-04-16 10:22:00,
2013-04-16 06:27:00,53.8,45.8,30.07,South,175,12.0,27.0,74,0.00,,,0.00,WUHU216DAVISVP2,2013-04-16 10:27:00,
2013-04-16 06:34:00,53.8,46.1,30.07,SSE,154,14.0,27.0,75,0.00,,,0.00,WUHU216DAVISVP2,2013-04-16 10:34:00,
2013-04-16 06:39:00,53.9,46.2,30.08,South,170,9.0,27.0,75,0.00,,,0.00,WUHU216DAVISVP2,2013-04-16 10:39:00,
2013-04-16 06:44:00,53.9,46.2,30.08,SE,128,7.0,22.0,75,0.00,,,0.00,WUHU216DAVISVP2,2013-04-16 10:44:00,
2013-04-16 06:50:00,53.9,46.2,30.08,South,183,9.0,26.0,75,0.00,,,0.00,WUHU216DAVISVP2,2013-04-16 10:50:00,
2013-04-16 06:55:00,53.9,46.6,30.08,SE,137,4.0,26.0,76,0.00,,,0.00,WUHU216DAVISVP2,2013-04-16 10:55:00,
2013-04-16 07:00:00,54.1,46.8,30.08,South,177,8.0,26.0,76,0.00,,,0.00,WUHU216DAVISVP2,2013-04-16 11:00:00,
2013-04-16 07:06:00,54.3,47.0,30.08,SSE,167,5.0,18.0,76,0.00,,,0.00,WUHU216DAVISVP2,2013-04-16 11:06:00,
2013-04-16 07:11:00,54.7,47.4,30.08,South,179,10.0,22.0,76,0.00,,,0.00,WUHU216DAVISVP2,2013-04-16 11:11:00,
2013-04-16 07:16:00,55.0,47.6,30.08,SSE,155,6.0,22.0,76,0.00,,,0.00,WUHU216DAVISVP2,2013-04-16 11:16:00,
2013-04-16 07:21:00,55.2,47.8,30.08,SW,236,8.0,22.0,76,0.00,,,0.00,WUHU216DAVISVP2,2013-04-16 11:21:00,
2013-04-16 07:26:00,55.2,47.8,30.08,SSE,154,9.0,22.0,76,0.00,,,0.00,WUHU216DAVISVP2,2013-04-16 11:26:00,
2013-04-16 07:32:00,55.2,47.8,30.08,SSW,195,8.0,21.0,76,0.00,,,0.00,WUHU216DAVISVP2,2013-04-16 11:32:00,
2013-04-16 07:37:00,55.2,48.2,30.08,South,173,9.0,21.0,77,0.00,,,0.00,WUHU216DAVISVP2,2013-04-16 11:37:00,
2013-04-16 07:42:00,55.4,48.4,30.08,SSE,151,5.0,21.0,77,0.00,,,0.00,WUHU216DAVISVP2,2013-04-16 11:42:00,
2013-04-16 07:47:00,55.9,48.9,30.08,SSW,197,5.0,19.0,77,0.00,,,0.00,WUHU216DAVISVP2,2013-04-16 11:47:00,
2013-04-16 07:52:00,56.2,48.8,30.08,South,180,9.0,19.0,76,0.00,,,0.00,WUHU216DAVISVP2,2013-04-16 11:52:00,
2013-04-16 07:57:00,56.3,48.9,30.08,SE,143,7.0,19.0,76,0.00,,,0.00,WUHU216DAVISVP2,2013-04-16 11:57:00,
2013-04-16 08:03:00,56.3,48.9,30.08,South,184,8.0,19.0,76,0.00,,,0.00,WUHU216DAVISVP2,2013-04-16 12:03:00,
2013-04-16 08:08:00,56.6,49.5,30.07,SSE,156,9.0,19.0,77,0.00,,,0.00,WUHU216DAVISVP2,2013-04-16 12:08:00,
2013-04-16 08:14:00,56.9,49.8,30.07,SSE,152,10.0,16.0,77,0.00,,,0.00,WUHU216DAVISVP2,2013-04-16 12:14:00,
2013-04-16 08:19:00,57.5,50.1,30.07,SW,233,20.0,20.0,76,0.00,,,0.00,WUHU216DAVISVP2,2013-04-16 12:19:00,
2013-04-16 08:24:00,57.9,50.4,30.06,SE,145,14.0,23.0,76,0.00,,,0.00,WUHU216DAVISVP2,2013-04-16 12:24:00,
2013-04-16 08:29:00,58.1,50.6,30.06,SE,131,7.0,23.0,76,0.00,,,0.00,WUHU216DAVISVP2,2013-04-16 12:29:00,
2013-04-16 08:35:00,58.5,50.6,30.06,ESE,115,6.0,23.0,75,0.00,,,0.00,WUHU216DAVISVP2,2013-04-16 12:35:00,
2013-04-16 08:40:00,58.7,50.4,30.06,SSW,205,12.0,21.0,74,0.00,,,0.00,WUHU216DAVISVP2,2013-04-16 12:40:00,
2013-04-16 08:47:00,59.1,50.9,30.05,South,170,16.0,24.0,74,0.00,,,0.00,WUHU216DAVISVP2,2013-04-16 12:47:00,
2013-04-16 08:52:00,59.5,51.3,30.05,South,191,4.0,24.0,74,0.00,,,0.00,WUHU216DAVISVP2,2013-04-16 12:52:00,
2013-04-16 08:58:00,59.8,51.1,30.04,SSW,205,5.0,24.0,73,0.00,,,0.00,WUHU216DAVISVP2,2013-04-16 12:58:00,
2013-04-16 09:03:00,59.6,51.1,30.02,South,174,9.0,18.0,73,0.00,,,0.00,WUHU216DAVISVP2,2013-04-16 13:03:00,
2013-04-16 09:08:00,59.0,51.2,30.05,SSE,158,8.0,21.0,75,0.00,,,0.00,WUHU216DAVISVP2,2013-04-16 13:08:00,
2013-04-16 09:13:00,58.5,51.4,30.05,SE,146,5.0,21.0,77,0.01,,,0.01,WUHU216DAVISVP2,2013-04-16 13:13:00,
2013-04-16 09:19:00,58.1,51.7,30.05,SSE,165,9.0,21.0,79,0.01,,,0.01,WUHU216DAVISVP2,2013-04-16 13:19:00,
2013-04-16 09:24:00,57.9,51.5,30.05,SSW,211,4.0,21.0,79,0.01,,,0.01,WUHU216DAVISVP2,2013-04-16 13:24:00,
2013-04-16 09:29:00,58.1,51.7,30.05,SSE,165,7.0,20.0,79,0.01,,,0.01,WUHU216DAVISVP2,2013-04-16 13:29:00,
2013-04-16 09:36:00,58.4,51.9,30.05,SSE,151,4.0,18.0,79,0.01,,,0.01,WUHU216DAVISVP2,2013-04-16 13:36:00,
2013-04-16 09:42:00,59.1,52.2,30.05,SSW,200,5.0,19.0,78,0.01,,,0.01,WUHU216DAVISVP2,2013-04-16 13:42:00,
2013-04-16 09:48:00,59.5,52.3,30.05,SSE,152,7.0,19.0,77,0.01,,,0.01,WUHU216DAVISVP2,2013-04-16 13:48:00,
2013-04-16 09:52:00,59.9,52.3,30.05,ESE,116,3.0,20.0,76,0.01,,,0.01,WUHU216DAVISVP2,2013-04-16 13:52:00,
2013-04-16 09:58:00,60.1,52.1,30.05,SW,217,6.0,20.0,75,0.01,,,0.01,WUHU216DAVISVP2,2013-04-16 13:58:00,
2013-04-16 10:03:00,60.3,52.3,30.05,SE,131,17.0,20.0,75,0.01,,,0.01,WUHU216DAVISVP2,2013-04-16 14:03:00,
2013-04-16 10:08:00,60.4,52.5,30.05,SE,135,5.0,20.0,75,0.01,,,0.01,WUHU216DAVISVP2,2013-04-16 14:08:00,
2013-04-16 10:13:00,60.7,52.5,30.05,SE,138,5.0,20.0,74,0.00,,,0.01,WUHU216DAVISVP2,2013-04-16 14:13:00,
2013-04-16 10:18:00,60.9,52.7,30.05,South,189,8.0,19.0,74,0.00,,,0.01,WUHU216DAVISVP2,2013-04-16 14:18:00,
2013-04-16 10:23:00,61.1,52.9,30.04,SW,214,8.0,19.0,74,0.00,,,0.01,WUHU216DAVISVP2,2013-04-16 14:23:00,
2013-04-16 10:29:00,61.4,52.8,30.04,SSE,160,12.0,19.0,73,0.00,,,0.01,WUHU216DAVISVP2,2013-04-16 14:29:00,
2013-04-16 10:36:00,61.8,53.2,30.04,SW,222,7.0,21.0,73,0.00,,,0.01,WUHU216DAVISVP2,2013-04-16 14:36:00,
2013-04-16 10:43:00,61.8,53.2,30.04,SE,131,5.0,21.0,73,0.00,,,0.01,WUHU216DAVISVP2,2013-04-16 14:43:00,
2013-04-16 10:48:00,61.7,52.7,30.03,SSE,161,12.0,21.0,72,0.00,,,0.01,WUHU216DAVISVP2,2013-04-16 14:48:00,
2013-04-16 10:54:00,61.7,52.7,30.03,SSE,148,6.0,24.0,72,0.00,,,0.01,WUHU216DAVISVP2,2013-04-16 14:54:00,
2013-04-16 10:59:00,61.7,52.7,30.04,SSW,211,3.0,24.0,72,0.00,,,0.01,WUHU216DAVISVP2,2013-04-16 14:59:00,
2013-04-16 11:05:00,61.6,52.6,30.04,East,91,8.0,24.0,72,0.00,,,0.01,WUHU216DAVISVP2,2013-04-16 15:05:00,
2013-04-16 11:10:00,61.5,52.5,30.04,SSE,155,11.0,20.0,72,0.00,,,0.01,WUHU216DAVISVP2,2013-04-16 15:10:00,
2013-04-16 11:15:00,61.4,52.4,30.05,SE,140,8.0,20.0,72,0.00,,,0.01,WUHU216DAVISVP2,2013-04-16 15:15:00,
2013-04-16 11:22:00,61.3,52.3,30.05,SSW,194,6.0,18.0,72,0.00,,,0.01,WUHU216DAVISVP2,2013-04-16 15:22:00,
2013-04-16 11:29:00,61.3,52.7,30.05,SSW,207,7.0,18.0,73,0.00,,,0.01,WUHU216DAVISVP2,2013-04-16 15:29:00,
2013-04-16 11:34:00,61.3,52.7,30.05,SSW,203,4.0,18.0,73,0.00,,,0.01,WUHU216DAVISVP2,2013-04-16 15:34:00,
2013-04-16 11:39:00,61.3,52.7,30.06,SSW,200,7.0,14.0,73,0.00,,,0.01,WUHU216DAVISVP2,2013-04-16 15:39:00,
2013-04-16 11:45:00,61.0,53.1,30.07,SSE,154,4.0,22.0,75,0.01,,,0.02,WUHU216DAVISVP2,2013-04-16 15:45:00,
2013-04-16 11:50:00,59.7,53.6,30.07,SSW,207,11.0,22.0,80,0.05,,,0.06,WUHU216DAVISVP2,2013-04-16 15:50:00,
2013-04-16 11:55:00,58.8,54.0,30.06,SSE,150,11.0,22.0,84,0.05,,,0.06,WUHU216DAVISVP2,2013-04-16 15:55:00,
2013-04-16 12:01:00,58.2,54.0,30.07,SSW,207,12.0,17.0,86,0.05,,,0.06,WUHU216DAVISVP2,2013-04-16 16:01:00,
2013-04-16 12:06:00,57.7,53.8,30.07,SSW,197,3.0,17.0,87,0.06,,,0.07,WUHU216DAVISVP2,2013-04-16 16:06:00,
2013-04-16 12:11:00,57.5,54.0,30.07,South,173,2.0,17.0,88,0.07,,,0.08,WUHU216DAVISVP2,2013-04-16 16:11:00,
2013-04-16 12:17:00,57.3,53.8,30.07,SSW,212,4.0,14.0,88,0.08,,,0.09,WUHU216DAVISVP2,2013-04-16 16:17:00,
2013-04-16 12:24:00,57.1,53.9,30.07,SSW,210,6.0,14.0,89,0.08,,,0.09,WUHU216DAVISVP2,2013-04-16 16:24:00,
2013-04-16 12:29:00,57.2,54.0,30.06,SE,143,6.0,14.0,89,0.08,,,0.09,WUHU216DAVISVP2,2013-04-16 16:29:00,
2013-04-16 12:34:00,57.3,54.1,30.06,SE,130,6.0,14.0,89,0.08,,,0.09,WUHU216DAVISVP2,2013-04-16 16:34:00,
2013-04-16 12:40:00,57.4,54.2,30.05,SSW,200,6.0,11.0,89,0.08,,,0.09,WUHU216DAVISVP2,2013-04-16 16:40:00,
2013-04-16 12:46:00,57.0,53.5,30.04,SE,139,3.0,13.0,88,0.06,,,0.09,WUHU216DAVISVP2,2013-04-16 16:46:00,
2013-04-16 12:51:00,56.7,53.5,30.03,SSE,163,5.0,13.0,89,0.03,,,0.09,WUHU216DAVISVP2,2013-04-16 16:51:00,
2013-04-16 12:56:00,56.6,53.4,30.03,SSE,152,5.0,14.0,89,0.03,,,0.09,WUHU216DAVISVP2,2013-04-16 16:56:00,
2013-04-16 13:02:00,56.5,53.3,30.03,SSE,166,5.0,14.0,89,0.03,,,0.09,WUHU216DAVISVP2,2013-04-16 17:02:00,
2013-04-16 13:07:00,56.7,53.5,30.02,SW,218,8.0,16.0,89,0.02,,,0.09,WUHU216DAVISVP2,2013-04-16 17:07:00,
2013-04-16 13:12:00,56.7,53.5,30.02,SE,136,9.0,16.0,89,0.02,,,0.10,WUHU216DAVISVP2,2013-04-16 17:12:00,
2013-04-16 13:18:00,56.9,53.4,30.02,ESE,116,4.0,16.0,88,0.01,,,0.10,WUHU216DAVISVP2,2013-04-16 17:18:00,
2013-04-16 13:23:00,56.9,53.4,30.02,South,183,4.0,17.0,88,0.01,,,0.10,WUHU216DAVISVP2,2013-04-16 17:23:00,
2013-04-16 13:28:00,57.1,53.6,30.03,South,173,7.0,17.0,88,0.01,,,0.10,WUHU216DAVISVP2,2013-04-16 17:28:00,
2013-04-16 13:33:00,57.2,53.7,30.02,SSE,160,5.0,17.0,88,0.01,,,0.10,WUHU216DAVISVP2,2013-04-16 17:33:00,
2013-04-16 13:39:00,57.4,53.9,30.02,SSE,165,7.0,17.0,88,0.01,,,0.10,WUHU216DAVISVP2,2013-04-16 17:39:00,
2013-04-16 13:44:00,57.8,54.2,30.02,SSW,197,3.0,15.0,88,0.01,,,0.10,WUHU216DAVISVP2,2013-04-16 17:44:00,
2013-04-16 13:49:00,57.9,54.0,30.02,South,181,3.0,13.0,87,0.01,,,0.10,WUHU216DAVISVP2,2013-04-16 17:49:00,
2013-04-16 13:54:00,58.0,54.1,30.02,South,187,7.0,13.0,87,0.01,,,0.10,WUHU216DAVISVP2,2013-04-16 17:54:00,
2013-04-16 14:00:00,58.0,54.1,30.02,ENE,63,2.0,12.0,87,0.01,,,0.10,WUHU216DAVISVP2,2013-04-16 18:00:00,
2013-04-16 14:05:00,58.3,54.4,30.02,South,172,2.0,11.0,87,0.01,,,0.10,WUHU216DAVISVP2,2013-04-16 18:05:00,
2013-04-16 14:10:00,58.4,54.5,30.02,SE,145,5.0,11.0,87,0.00,,,0.10,WUHU216DAVISVP2,2013-04-16 18:10:00,
2013-04-16 14:15:00,58.6,55.1,30.02,South,186,5.0,10.0,88,0.00,,,0.10,WUHU216DAVISVP2,2013-04-16 18:15:00,
2013-04-16 14:20:00,59.1,55.2,30.01,SSW,205,5.0,10.0,87,0.00,,,0.10,WUHU216DAVISVP2,2013-04-16 18:20:00,
2013-04-16 14:25:00,60.9,56.7,30.01,SSW,210,6.0,18.0,86,0.00,,,0.10,WUHU216DAVISVP2,2013-04-16 18:25:00,
2013-04-16 14:31:00,62.1,56.9,30.01,SW,220,6.0,18.0,83,0.00,,,0.10,WUHU216DAVISVP2,2013-04-16 18:31:00,
2013-04-16 14:36:00,62.8,57.2,30.01,SSW,205,5.0,18.0,82,0.00,,,0.10,WUHU216DAVISVP2,2013-04-16 18:36:00,
2013-04-16 14:41:00,63.2,57.0,30.01,SE,142,4.0,17.0,80,0.00,,,0.10,WUHU216DAVISVP2,2013-04-16 18:41:00,
2013-04-16 14:48:00,62.0,55.8,30.01,SSE,155,4.0,16.0,80,0.00,,,0.10,WUHU216DAVISVP2,2013-04-16 18:48:00,
2013-04-16 14:53:00,61.4,55.9,30.01,SE,135,2.0,16.0,82,0.00,,,0.10,WUHU216DAVISVP2,2013-04-16 18:53:00,
2013-04-16 14:58:00,61.4,55.9,30.00,SSE,157,4.0,13.0,82,0.00,,,0.10,WUHU216DAVISVP2,2013-04-16 18:58:00,
2013-04-16 15:03:00,61.5,56.0,30.00,SSE,165,16.0,16.0,82,0.00,,,0.10,WUHU216DAVISVP2,2013-04-16 19:03:00,
2013-04-16 15:09:00,61.5,55.7,30.00,SSE,158,9.0,17.0,81,0.00,,,0.10,WUHU216DAVISVP2,2013-04-16 19:09:00,
2013-04-16 15:14:00,61.6,56.1,30.00,South,179,8.0,17.0,82,0.00,,,0.10,WUHU216DAVISVP2,2013-04-16 19:14:00,
2013-04-16 15:19:00,61.5,55.7,30.00,South,175,5.0,17.0,81,0.00,,,0.10,WUHU216DAVISVP2,2013-04-16 19:19:00,
2013-04-16 15:25:00,61.6,56.1,29.99,SSE,150,5.0,15.0,82,0.00,,,0.10,WUHU216DAVISVP2,2013-04-16 19:25:00,
2013-04-16 15:30:00,61.6,55.8,29.99,SE,145,6.0,15.0,81,0.00,,,0.10,WUHU216DAVISVP2,2013-04-16 19:30:00,
2013-04-16 15:35:00,61.5,55.7,29.99,South,175,7.0,15.0,81,0.00,,,0.10,WUHU216DAVISVP2,2013-04-16 19:35:00,
2013-04-16 15:40:00,61.4,55.6,29.99,SSE,159,9.0,15.0,81,0.00,,,0.10,WUHU216DAVISVP2,2013-04-16 19:40:00,
2013-04-16 15:45:00,61.2,55.7,29.98,SSE,159,6.0,15.0,82,0.00,,,0.10,WUHU216DAVISVP2,2013-04-16 19:45:00,
2013-04-16 15:50:00,61.1,55.6,29.98,South,174,3.0,15.0,82,0.00,,,0.10,WUHU216DAVISVP2,2013-04-16 19:50:00,
2013-04-16 15:55:00,61.0,55.5,29.98,SSE,165,8.0,15.0,82,0.00,,,0.10,WUHU216DAVISVP2,2013-04-16 19:55:00,
2013-04-16 16:00:00,61.1,55.6,29.98,South,177,4.0,13.0,82,0.00,,,0.10,WUHU216DAVISVP2,2013-04-16 20:00:00,
2013-04-16 16:05:00,61.1,55.6,29.98,ESE,122,4.0,12.0,82,0.00,,,0.10,WUHU216DAVISVP2,2013-04-16 20:05:00,
2013-04-16 16:10:00,61.2,55.7,29.98,SSE,158,12.0,13.0,82,0.00,,,0.10,WUHU216DAVISVP2,2013-04-16 20:10:00,
2013-04-16 16:16:00,61.4,55.9,29.98,SE,125,8.0,14.0,82,0.00,,,0.10,WUHU216DAVISVP2,2013-04-16 20:16:00,
2013-04-16 16:22:00,61.5,56.0,29.98,SE,131,3.0,14.0,82,0.00,,,0.10,WUHU216DAVISVP2,2013-04-16 20:22:00,
2013-04-16 16:27:00,61.6,56.1,29.97,SSE,168,5.0,14.0,82,0.00,,,0.10,WUHU216DAVISVP2,2013-04-16 20:27:00,
2013-04-16 16:32:00,61.6,56.1,29.97,SE,143,4.0,10.0,82,0.00,,,0.10,WUHU216DAVISVP2,2013-04-16 20:32:00,
2013-04-16 16:37:00,61.8,56.3,29.97,SSE,166,8.0,11.0,82,0.00,,,0.10,WUHU216DAVISVP2,2013-04-16 20:37:00,
2013-04-16 16:42:00,61.9,56.4,29.97,SSE,163,4.0,11.0,82,0.00,,,0.10,WUHU216DAVISVP2,2013-04-16 20:42:00,
2013-04-16 16:48:00,62.1,56.3,29.97,SSE,159,3.0,11.0,81,0.00,,,0.10,WUHU216DAVISVP2,2013-04-16 20:48:00,
2013-04-16 16:53:00,62.1,56.3,29.96,SSE,154,4.0,9.0,81,0.00,,,0.10,WUHU216DAVISVP2,2013-04-16 20:53:00,
2013-04-16 16:58:00,62.2,56.3,29.96,SE,136,6.0,9.0,81,0.00,,,0.10,WUHU216DAVISVP2,2013-04-16 20:58:00,
2013-04-16 17:03:00,62.3,56.4,29.97,SE,141,1.0,9.0,81,0.00,,,0.10,WUHU216DAVISVP2,2013-04-16 21:03:00,
2013-04-16 17:08:00,62.3,56.7,29.97,SW,229,2.0,9.0,82,0.00,,,0.10,WUHU216DAVISVP2,2013-04-16 21:08:00,
2013-04-16 17:13:00,62.2,57.3,29.97,SW,233,5.0,9.0,84,0.00,,,0.10,WUHU216DAVISVP2,2013-04-16 21:13:00,
2013-04-16 17:20:00,62.2,57.6,29.97,WNW,297,5.0,6.0,85,0.01,,,0.11,WUHU216DAVISVP2,2013-04-16 21:20:00,
2013-04-16 17:25:00,63.1,58.2,29.98,WNW,285,3.0,10.0,84,0.01,,,0.11,WUHU216DAVISVP2,2013-04-16 21:25:00,
2013-04-16 17:30:00,63.1,58.8,29.99,NNW,334,3.0,10.0,86,0.03,,,0.13,WUHU216DAVISVP2,2013-04-16 21:30:00,
2013-04-16 17:35:00,62.2,58.6,30.00,NNW,338,5.0,10.0,88,0.08,,,0.18,WUHU216DAVISVP2,2013-04-16 21:35:00,
2013-04-16 17:40:00,61.4,58.4,30.01,NW,326,8.0,19.0,90,0.13,,,0.23,WUHU216DAVISVP2,2013-04-16 21:40:00,
2013-04-16 17:45:00,60.5,57.5,30.01,NNE,22,7.0,22.0,90,0.15,,,0.25,WUHU216DAVISVP2,2013-04-16 21:45:00,
2013-04-16 17:50:00,57.6,55.0,30.03,NNW,334,9.0,22.0,91,0.16,,,0.26,WUHU216DAVISVP2,2013-04-16 21:50:00,
2013-04-16 17:55:00,56.6,54.6,30.03,NNW,335,5.0,22.0,93,0.17,,,0.27,WUHU216DAVISVP2,2013-04-16 21:55:00,
2013-04-16 18:00:00,55.3,53.3,30.06,NNW,327,12.0,20.0,93,0.19,,,0.29,WUHU216DAVISVP2,2013-04-16 22:00:00,
2013-04-16 18:06:00,53.9,51.9,30.05,NNW,333,11.0,19.0,93,0.23,,,0.33,WUHU216DAVISVP2,2013-04-16 22:06:00,
2013-04-16 18:12:00,53.1,51.4,30.05,NNW,339,6.0,19.0,94,0.23,,,0.33,WUHU216DAVISVP2,2013-04-16 22:12:00,
2013-04-16 18:18:00,52.7,51.3,30.05,NNW,327,3.0,18.0,95,0.22,,,0.33,WUHU216DAVISVP2,2013-04-16 22:18:00,
2013-04-16 18:23:00,52.4,51.0,30.06,North,351,7.0,18.0,95,0.22,,,0.33,WUHU216DAVISVP2,2013-04-16 22:23:00,
2013-04-16 18:28:00,52.2,50.8,30.07,North,358,7.0,12.0,95,0.21,,,0.33,WUHU216DAVISVP2,2013-04-16 22:28:00,
2013-04-16 18:34:00,51.7,50.3,30.07,NNW,328,7.0,13.0,95,0.17,,,0.34,WUHU216DAVISVP2,2013-04-16 22:34:00,
2013-04-16 18:39:00,51.5,50.1,30.08,NW,318,5.0,16.0,95,0.12,,,0.34,WUHU216DAVISVP2,2013-04-16 22:39:00,
2013-04-16 18:44:00,51.4,50.3,30.08,NW,314,5.0,16.0,96,0.10,,,0.35,WUHU216DAVISVP2,2013-04-16 22:44:00,
2013-04-16 18:50:00,51.3,50.2,30.08,North,5,8.0,16.0,96,0.09,,,0.35,WUHU216DAVISVP2,2013-04-16 22:50:00,
2013-04-16 18:55:00,51.2,50.1,30.08,North,349,3.0,12.0,96,0.09,,,0.35,WUHU216DAVISVP2,2013-04-16 22:55:00,
2013-04-16 19:00:00,51.3,50.2,30.08,NW,312,5.0,12.0,96,0.07,,,0.36,WUHU216DAVISVP2,2013-04-16 23:00:00,
2013-04-16 19:05:00,51.3,50.2,30.08,WNW,299,9.0,15.0,96,0.03,,,0.36,WUHU216DAVISVP2,2013-04-16 23:05:00,
2013-04-16 19:11:00,51.4,50.3,30.09,NW,314,7.0,15.0,96,0.03,,,0.36,WUHU216DAVISVP2,2013-04-16 23:11:00,
2013-04-16 19:16:00,51.4,50.3,30.09,WNW,297,11.0,15.0,96,0.03,,,0.36,WUHU216DAVISVP2,2013-04-16 23:16:00,
2013-04-16 19:21:00,51.5,50.4,30.09,WSW,252,6.0,13.0,96,0.03,,,0.36,WUHU216DAVISVP2,2013-04-16 23:21:00,
2013-04-16 19:26:00,51.6,50.5,30.09,NNW,328,4.0,13.0,96,0.03,,,0.36,WUHU216DAVISVP2,2013-04-16 23:26:00,
2013-04-16 19:33:00,51.6,50.5,30.09,NW,310,4.0,13.0,96,0.02,,,0.36,WUHU216DAVISVP2,2013-04-16 23:33:00,
2013-04-16 19:38:00,51.8,50.7,30.09,WNW,300,3.0,10.0,96,0.02,,,0.36,WUHU216DAVISVP2,2013-04-16 23:38:00,
2013-04-16 19:43:00,51.9,50.8,30.10,NNW,336,3.0,10.0,96,0.02,,,0.36,WUHU216DAVISVP2,2013-04-16 23:43:00,
2013-04-16 19:48:00,51.9,50.8,30.11,NNW,340,3.0,10.0,96,0.01,,,0.36,WUHU216DAVISVP2,2013-04-16 23:48:00,
2013-04-16 19:53:00,51.9,50.8,30.11,WNW,290,4.0,11.0,96,0.01,,,0.36,WUHU216DAVISVP2,2013-04-16 23:53:00,
2013-04-16 19:58:00,51.9,50.8,30.12,NNW,335,3.0,11.0,96,0.00,,,0.36,WUHU216DAVISVP2,2013-04-16 23:58:00,
2013-04-16 20:04:00,51.8,50.7,30.12,NW,326,2.0,11.0,96,0.00,,,0.36,WUHU216DAVISVP2,2013-04-17 00:04:00,
2013-04-16 20:09:00,51.8,50.7,30.12,NNW,328,2.0,10.0,96,0.00,,,0.36,WUHU216DAVISVP2,2013-04-17 00:09:00,
2013-04-16 20:15:00,51.8,50.7,30.12,North,360,3.0,10.0,96,0.00,,,0.36,WUHU216DAVISVP2,2013-04-17 00:15:00,
2013-04-16 20:20:00,51.8,50.7,30.13,NNW,339,5.0,10.0,96,0.00,,,0.36,WUHU216DAVISVP2,2013-04-17 00:20:00,
2013-04-16 20:25:00,51.8,50.7,30.14,NNE,12,1.0,7.0,96,0.00,,,0.36,WUHU216DAVISVP2,2013-04-17 00:25:00,
2013-04-16 20:31:00,51.8,50.7,30.14,NNW,334,2.0,6.0,96,0.00,,,0.36,WUHU216DAVISVP2,2013-04-17 00:31:00,
2013-04-16 20:36:00,51.7,50.6,30.15,NNE,33,6.0,7.0,96,0.00,,,0.36,WUHU216DAVISVP2,2013-04-17 00:36:00,
2013-04-16 20:41:00,51.6,50.5,30.15,WNW,295,1.0,7.0,96,0.00,,,0.36,WUHU216DAVISVP2,2013-04-17 00:41:00,
2013-04-16 20:47:00,51.5,50.4,30.16,NNW,333,4.0,7.0,96,0.00,,,0.36,WUHU216DAVISVP2,2013-04-17 00:47:00,
2013-04-16 20:53:00,51.5,50.4,30.16,NW,321,2.0,7.0,96,0.00,,,0.36,WUHU216DAVISVP2,2013-04-17 00:53:00,
2013-04-16 20:58:00,51.4,50.3,30.17,NW,321,2.0,7.0,96,0.00,,,0.36,WUHU216DAVISVP2,2013-04-17 00:58:00,
2013-04-16 21:05:00,51.4,50.3,30.17,NW,314,2.0,7.0,96,0.00,,,0.36,WUHU216DAVISVP2,2013-04-17 01:05:00,
2013-04-16 21:10:00,51.3,50.2,30.17,NW,316,1.0,7.0,96,0.00,,,0.36,WUHU216DAVISVP2,2013-04-17 01:10:00,
2013-04-16 21:15:00,51.3,50.2,30.17,NNW,334,4.0,7.0,96,0.00,,,0.36,WUHU216DAVISVP2,2013-04-17 01:15:00,
2013-04-16 21:20:00,51.3,50.2,30.18,NNW,336,4.0,7.0,96,0.00,,,0.36,WUHU216DAVISVP2,2013-04-17 01:20:00,
2013-04-16 21:25:00,51.3,50.2,30.18,NNW,334,3.0,7.0,96,0.00,,,0.36,WUHU216DAVISVP2,2013-04-17 01:25:00,
2013-04-16 21:30:00,51.2,50.1,30.18,NNW,336,4.0,7.0,96,0.00,,,0.36,WUHU216DAVISVP2,2013-04-17 01:30:00,
2013-04-16 21:35:00,51.2,50.1,30.18,North,358,1.0,7.0,96,0.00,,,0.36,WUHU216DAVISVP2,2013-04-17 01:35:00,
2013-04-16 21:40:00,51.1,49.7,30.18,NE,50,3.0,7.0,95,0.00,,,0.36,WUHU216DAVISVP2,2013-04-17 01:40:00,
2013-04-16 21:46:00,51.1,49.7,30.19,East,95,1.0,6.0,95,0.00,,,0.36,WUHU216DAVISVP2,2013-04-17 01:46:00,
2013-04-16 21:52:00,51.1,49.7,30.19,East,90,2.0,6.0,95,0.00,,,0.36,WUHU216DAVISVP2,2013-04-17 01:52:00,
2013-04-16 21:57:00,50.9,49.5,30.19,ENE,78,1.0,4.0,95,0.00,,,0.36,WUHU216DAVISVP2,2013-04-17 01:57:00,
2013-04-16 22:02:00,50.8,49.7,30.20,NNE,15,2.0,5.0,96,0.00,,,0.36,WUHU216DAVISVP2,2013-04-17 02:02:00,
2013-04-16 22:07:00,50.6,49.5,30.20,North,352,2.0,5.0,96,0.00,,,0.36,WUHU216DAVISVP2,2013-04-17 02:07:00,
2013-04-16 22:13:00,50.1,48.4,30.20,NW,314,5.0,9.0,94,0.00,,,0.36,WUHU216DAVISVP2,2013-04-17 02:13:00,
2013-04-16 22:18:00,49.5,46.7,30.21,NW,325,2.0,11.0,90,0.00,,,0.36,WUHU216DAVISVP2,2013-04-17 02:18:00,
2013-04-16 22:24:00,49.3,45.9,30.21,NNW,330,4.0,12.0,88,0.00,,,0.36,WUHU216DAVISVP2,2013-04-17 02:24:00,
2013-04-16 22:29:00,48.7,44.4,30.21,NNW,338,4.0,13.0,85,0.00,,,0.36,WUHU216DAVISVP2,2013-04-17 02:29:00,
2013-04-16 22:34:00,48.4,44.4,30.21,NW,321,5.0,13.0,86,0.00,,,0.36,WUHU216DAVISVP2,2013-04-17 02:34:00,
2013-04-16 22:39:00,48.1,43.5,30.22,NW,315,5.0,12.0,84,0.00,,,0.36,WUHU216DAVISVP2,2013-04-17 02:39:00,
2013-04-16 22:44:00,47.5,41.3,30.22,NNW,332,6.0,13.0,79,0.00,,,0.36,WUHU216DAVISVP2,2013-04-17 02:44:00,
2013-04-16 22:49:00,47.1,41.0,30.22,NNE,20,5.0,13.0,79,0.00,,,0.36,WUHU216DAVISVP2,2013-04-17 02:49:00,
2013-04-16 22:56:00,46.8,39.4,30.23,NNW,342,10.0,13.0,75,0.00,,,0.36,WUHU216DAVISVP2,2013-04-17 02:56:00,
2013-04-16 23:01:00,46.5,38.0,30.24,NNE,12,3.0,14.0,72,0.00,,,0.36,WUHU216DAVISVP2,2013-04-17 03:01:00,
2013-04-16 23:06:00,46.3,36.8,30.24,WNW,301,4.0,14.0,69,0.00,,,0.36,WUHU216DAVISVP2,2013-04-17 03:06:00,
2013-04-16 23:14:00,46.1,36.6,30.24,NNE,25,3.0,14.0,69,0.00,,,0.36,WUHU216DAVISVP2,2013-04-17 03:14:00,
2013-04-16 23:19:00,46.0,36.1,30.24,NW,315,4.0,12.0,68,0.00,,,0.36,WUHU216DAVISVP2,2013-04-17 03:19:00,
2013-04-16 23:24:00,45.9,35.9,30.24,North,4,6.0,14.0,68,0.00,,,0.36,WUHU216DAVISVP2,2013-04-17 03:24:00,
2013-04-16 23:29:00,45.9,35.6,30.24,NNW,330,7.0,16.0,67,0.00,,,0.36,WUHU216DAVISVP2,2013-04-17 03:29:00,
2013-04-16 23:34:00,45.7,36.5,30.24,NNW,332,2.0,16.0,70,0.00,,,0.36,WUHU216DAVISVP2,2013-04-17 03:34:00,
2013-04-16 23:39:00,45.5,35.9,30.24,NNW,337,7.0,16.0,69,0.00,,,0.36,WUHU216DAVISVP2,2013-04-17 03:39:00,
2013-04-16 23:45:00,45.6,34.9,30.24,NNW,343,7.0,16.0,66,0.00,,,0.36,WUHU216DAVISVP2,2013-04-17 03:45:00,
2013-04-16 23:51:00,45.6,35.6,30.24,NNW,345,3.0,15.0,68,0.00,,,0.36,WUHU216DAVISVP2,2013-04-17 03:51:00,
2013-04-16 23:55:00,45.4,35.9,30.25,NNW,338,3.0,15.0,69,0.00,,,0.36,WUHU216DAVISVP2,2013-04-17 03:55:00,